EVA802 VMMC-RCTP

Flight info

Callsign EVA802
Flight time 1h 19m
Altitude 39000
Route CONGA V631 ENVAR M750 EXTRA/N0484F290 M750 TONGA TONGA1B
Aircraft A333/H-SDE3GHIJ2J3J5M1RVWXY/LB2D1

Departure

Time 2026-04-22 18:47
Airport Macau International Airport (VMMC)

Arrival

Time 2026-04-22 20:06
Airport Taiwan Taoyuan International Airport (RCTP)
Time Latitude Longitude Altitude Speed Heading
2026-04-22 18:33 22.15737 113.57570 32 ft 0 kts 303°
2026-04-22 18:40 22.15728 113.57584 32 ft 4 kts 308°
2026-04-22 18:40 22.15710 113.57606 32 ft 4 kts 323°
2026-04-22 18:41 22.15687 113.57618 32 ft 4 kts 358°
2026-04-22 18:41 22.15670 113.57615 32 ft 0 kts 36°
2026-04-22 18:44 22.15673 113.57616 32 ft 1 kts 36°
2026-04-22 18:44 22.15696 113.57632 32 ft 9 kts 31°
2026-04-22 18:44 22.15790 113.57679 32 ft 20 kts 19°
2026-04-22 18:44 22.15924 113.57717 32 ft 22 kts 14°
2026-04-22 18:45 22.16067 113.57764 32 ft 22 kts 34°
2026-04-22 18:45 22.16143 113.57933 32 ft 29 kts 70°
2026-04-22 18:45 22.16216 113.58169 32 ft 37 kts 71°
2026-04-22 18:45 22.16286 113.58384 32 ft 27 kts 71°
2026-04-22 18:46 22.16341 113.58567 32 ft 24 kts 77°
2026-04-22 18:46 22.16275 113.58654 32 ft 18 kts 159°
2026-04-22 18:46 22.16258 113.58660 32 ft 0 kts 161°
2026-04-22 18:46 22.16117 113.58712 33 ft 52 kts 161°
2026-04-22 18:47 22.15588 113.58906 31 ft 107 kts 161°
2026-04-22 18:47 22.14730 113.59223 41 ft 151 kts 162°
2026-04-22 18:47 22.13741 113.59601 539 ft 151 kts 161°
2026-04-22 18:47 22.12751 113.59990 1119 ft 151 kts 162°
2026-04-22 18:48 22.11756 113.60364 1688 ft 155 kts 162°
2026-04-22 18:48 22.10677 113.60763 1942 ft 174 kts 163°
2026-04-22 18:48 22.09454 113.61215 2144 ft 197 kts 163°
2026-04-22 18:48 22.08085 113.61725 2352 ft 219 kts 163°
2026-04-22 18:49 22.06577 113.62293 2577 ft 239 kts 163°
2026-04-22 18:49 22.04967 113.62902 3023 ft 250 kts 163°
2026-04-22 18:49 22.03294 113.63537 3485 ft 260 kts 164°
2026-04-22 18:49 22.01564 113.64190 3877 ft 265 kts 164°
2026-04-22 18:50 21.99816 113.64847 3985 ft 266 kts 164°
2026-04-22 18:50 21.98061 113.65497 3991 ft 266 kts 165°
2026-04-22 18:50 21.96308 113.66134 4132 ft 266 kts 165°
2026-04-22 18:50 21.94546 113.66774 4616 ft 269 kts 165°
2026-04-22 18:51 21.92757 113.67415 5380 ft 271 kts 166°
2026-04-22 18:51 21.90947 113.68059 6134 ft 277 kts 165°
2026-04-22 18:51 21.89135 113.68710 6894 ft 279 kts 165°
2026-04-22 18:51 21.87279 113.69377 7612 ft 284 kts 165°
2026-04-22 18:52 21.85386 113.70059 8334 ft 289 kts 165°
2026-04-22 18:52 21.83470 113.70753 9053 ft 292 kts 165°
2026-04-22 18:52 21.81528 113.71454 9757 ft 297 kts 165°
2026-04-22 18:52 21.79550 113.72168 10385 ft 305 kts 165°
2026-04-22 18:53 21.77480 113.72910 10672 ft 324 kts 165°
2026-04-22 18:53 21.75274 113.73701 10929 ft 343 kts 165°
2026-04-22 18:53 21.72955 113.74536 11178 ft 360 kts 165°
2026-04-22 18:53 21.70543 113.75404 11550 ft 370 kts 164°
2026-04-22 18:54 21.68083 113.76293 12103 ft 375 kts 164°
2026-04-22 18:54 21.65648 113.77342 12704 ft 380 kts 157°
2026-04-22 18:54 21.63363 113.78836 13261 ft 389 kts 146°
2026-04-22 18:54 21.61363 113.80820 13788 ft 396 kts 134°
2026-04-22 18:55 21.59749 113.83259 14317 ft 405 kts 121°
2026-04-22 18:55 21.58624 113.86053 14835 ft 411 kts 109°
2026-04-22 18:55 21.58055 113.89083 15328 ft 418 kts 97°
2026-04-22 18:55 21.57882 113.92212 15804 ft 422 kts 93°
2026-04-22 18:56 21.57790 113.95370 16292 ft 425 kts 92°
2026-04-22 18:56 21.57701 113.98557 16769 ft 428 kts 92°
2026-04-22 18:56 21.57604 114.01721 17226 ft 431 kts 92°
2026-04-22 18:56 21.57497 114.04950 17638 ft 434 kts 92°
2026-04-22 18:57 21.57384 114.08213 18049 ft 438 kts 92°
2026-04-22 18:57 21.57267 114.11498 18468 ft 441 kts 92°
2026-04-22 18:57 21.57148 114.14797 18884 ft 443 kts 92°
2026-04-22 18:57 21.57026 114.18120 19288 ft 445 kts 92°
2026-04-22 18:58 21.56904 114.21458 19630 ft 449 kts 92°
2026-04-22 18:58 21.56779 114.24821 20001 ft 452 kts 92°
2026-04-22 18:58 21.56653 114.28201 20397 ft 454 kts 92°
2026-04-22 18:58 21.56526 114.31597 20751 ft 456 kts 92°
2026-04-22 18:59 21.56397 114.35007 21083 ft 459 kts 92°
2026-04-22 18:59 21.56268 114.38402 21419 ft 461 kts 92°
2026-04-22 18:59 21.56137 114.41864 21767 ft 464 kts 92°
2026-04-22 18:59 21.56004 114.45332 22098 ft 466 kts 92°
2026-04-22 19:00 21.55870 114.48820 22375 ft 469 kts 92°
2026-04-22 19:00 21.55733 114.52330 22724 ft 471 kts 92°
2026-04-22 19:00 21.55597 114.55848 23052 ft 472 kts 92°
2026-04-22 19:00 21.55458 114.59381 23345 ft 475 kts 92°
2026-04-22 19:01 21.55318 114.62934 23621 ft 478 kts 92°
2026-04-22 19:01 21.55177 114.66511 23909 ft 480 kts 92°
2026-04-22 19:01 21.55034 114.70100 24212 ft 482 kts 92°
2026-04-22 19:01 21.54890 114.73708 24525 ft 484 kts 92°
2026-04-22 19:02 21.54743 114.77336 24801 ft 486 kts 92°
2026-04-22 19:02 21.54596 114.80971 25053 ft 489 kts 92°
2026-04-22 19:02 21.54446 114.84626 25359 ft 490 kts 92°
2026-04-22 19:02 21.54298 114.88245 25648 ft 492 kts 92°
2026-04-22 19:03 21.54147 114.91935 25898 ft 495 kts 92°
2026-04-22 19:03 21.53994 114.95629 26183 ft 496 kts 92°
2026-04-22 19:03 21.53841 114.99341 26458 ft 498 kts 92°
2026-04-22 19:03 21.53685 115.03067 26718 ft 500 kts 92°
2026-04-22 19:04 21.53527 115.06810 26942 ft 503 kts 92°
2026-04-22 19:04 21.53368 115.10571 27198 ft 505 kts 92°
2026-04-22 19:04 21.53325 115.14339 27458 ft 506 kts 86°
2026-04-22 19:04 21.53660 115.18105 27712 ft 507 kts 82°
2026-04-22 19:05 21.54129 115.21878 27932 ft 510 kts 81°
2026-04-22 19:05 21.54620 115.25651 28158 ft 511 kts 81°
2026-04-22 19:05 21.55111 115.29441 28398 ft 513 kts 81°
2026-04-22 19:05 21.55593 115.33195 28644 ft 515 kts 81°
2026-04-22 19:06 21.56080 115.37006 28866 ft 516 kts 81°
2026-04-22 19:06 21.56567 115.40832 29083 ft 518 kts 81°
2026-04-22 19:06 21.57054 115.44670 29294 ft 519 kts 81°
2026-04-22 19:07 21.58029 115.52394 29666 ft 523 kts 81°
2026-04-22 19:07 21.58517 115.56272 29862 ft 525 kts 81°
2026-04-22 19:07 21.59007 115.60172 30067 ft 526 kts 81°
2026-04-22 19:07 21.59495 115.64071 30342 ft 525 kts 81°
2026-04-22 19:08 21.59975 115.67913 30661 ft 524 kts 81°
2026-04-22 19:08 21.60458 115.71785 30939 ft 523 kts 81°
2026-04-22 19:08 21.60942 115.75666 31167 ft 524 kts 81°
2026-04-22 19:08 21.61424 115.79541 31429 ft 524 kts 81°
2026-04-22 19:09 21.61905 115.83420 31739 ft 522 kts 81°
2026-04-22 19:09 21.62384 115.87280 32044 ft 521 kts 81°
2026-04-22 19:09 21.62699 115.89830 32246 ft 520 kts 81°
2026-04-22 19:09 21.63337 115.94983 32595 ft 520 kts 81°
2026-04-22 19:10 21.63811 115.98832 32855 ft 519 kts 81°
2026-04-22 19:10 21.64283 116.02679 33144 ft 518 kts 81°
2026-04-22 19:10 21.64754 116.06513 33441 ft 517 kts 81°
2026-04-22 19:10 21.65222 116.10344 33709 ft 516 kts 81°
2026-04-22 19:11 21.65689 116.14168 33982 ft 516 kts 81°
2026-04-22 19:11 21.66155 116.17986 34258 ft 515 kts 81°
2026-04-22 19:11 21.66618 116.21798 34523 ft 514 kts 81°
2026-04-22 19:11 21.67081 116.25606 34784 ft 514 kts 81°
2026-04-22 19:12 21.67387 116.28128 34961 ft 513 kts 81°
2026-04-22 19:12 21.67847 116.31931 35219 ft 512 kts 81°
2026-04-22 19:12 21.68455 116.36963 35521 ft 512 kts 81°
2026-04-22 19:12 21.68913 116.40756 35704 ft 512 kts 81°
2026-04-22 19:13 21.69370 116.44560 35923 ft 512 kts 81°
2026-04-22 19:13 21.69825 116.48345 36180 ft 510 kts 81°
2026-04-22 19:13 21.70131 116.50902 36344 ft 510 kts 81°
2026-04-22 19:13 21.70584 116.54690 36535 ft 510 kts 81°
2026-04-22 19:14 21.71036 116.58471 36746 ft 510 kts 81°
2026-04-22 19:14 21.71486 116.62251 36997 ft 508 kts 81°
2026-04-22 19:14 21.71933 116.66008 37272 ft 506 kts 81°
2026-04-22 19:14 21.72372 116.69696 37554 ft 503 kts 81°
2026-04-22 19:15 21.72814 116.73422 37810 ft 501 kts 81°
2026-04-22 19:15 21.73320 116.77125 38006 ft 499 kts 76°
2026-04-22 19:15 21.74235 116.80712 38171 ft 497 kts 69°
2026-04-22 19:15 21.75383 116.84212 38332 ft 496 kts 67°
2026-04-22 19:16 21.76622 116.87683 38468 ft 496 kts 66°
2026-04-22 19:16 21.77898 116.91130 38608 ft 496 kts 65°
2026-04-22 19:16 21.79167 116.94530 38760 ft 496 kts 65°
2026-04-22 19:17 21.81728 117.01454 38822 ft 498 kts 66°
2026-04-22 19:17 21.84247 117.08386 38822 ft 497 kts 66°
2026-04-22 19:18 21.86746 117.15318 38822 ft 495 kts 66°
2026-04-22 19:18 21.89241 117.22251 38823 ft 496 kts 66°
2026-04-22 19:19 21.91714 117.29139 38823 ft 496 kts 66°
2026-04-22 19:19 21.94203 117.36081 38822 ft 496 kts 66°
2026-04-22 19:20 21.96690 117.43017 38822 ft 496 kts 66°
2026-04-22 19:20 21.99320 117.49881 38823 ft 494 kts 59°
2026-04-22 19:21 22.02731 117.56290 38824 ft 493 kts 56°
2026-04-22 19:21 22.06306 117.62600 38822 ft 493 kts 55°
2026-04-22 19:22 22.09907 117.68898 38822 ft 493 kts 55°
2026-04-22 19:22 22.13493 117.75199 38823 ft 493 kts 55°
2026-04-22 19:23 22.17073 117.81513 38841 ft 493 kts 55°
2026-04-22 19:23 22.20623 117.87797 38841 ft 493 kts 55°
2026-04-22 19:24 22.24216 117.94164 38841 ft 493 kts 55°
2026-04-22 19:24 22.27758 118.00442 38841 ft 493 kts 55°
2026-04-22 19:25 22.31397 118.06727 38841 ft 492 kts 54°
2026-04-22 19:25 22.35062 118.12982 38841 ft 492 kts 54°
2026-04-22 19:26 22.38721 118.19241 38841 ft 493 kts 54°
2026-04-22 19:26 22.42347 118.25531 38842 ft 493 kts 55°
2026-04-22 19:27 22.45933 118.31870 38841 ft 494 kts 55°
2026-04-22 19:27 22.49513 118.38216 38842 ft 494 kts 55°
2026-04-22 19:28 22.53081 118.44533 38847 ft 495 kts 55°
2026-04-22 19:28 22.56681 118.50907 38842 ft 496 kts 55°
2026-04-22 19:29 22.60299 118.57266 38841 ft 496 kts 55°
2026-04-22 19:29 22.63919 118.63624 38841 ft 497 kts 55°
2026-04-22 19:30 22.66931 118.68919 38842 ft 497 kts 55°
2026-04-22 19:30 22.71175 118.76390 38841 ft 498 kts 55°
2026-04-22 19:31 22.74801 118.82780 38841 ft 498 kts 55°
2026-04-22 19:31 22.78411 118.89148 38850 ft 499 kts 55°
2026-04-22 19:32 22.82041 118.95563 38851 ft 499 kts 55°
2026-04-22 19:32 22.85672 119.01984 38850 ft 499 kts 55°
2026-04-22 19:33 22.89300 119.08410 38851 ft 499 kts 55°
2026-04-22 19:33 22.92931 119.14850 38850 ft 500 kts 55°
2026-04-22 19:34 22.96536 119.21252 38862 ft 500 kts 55°
2026-04-22 19:34 23.00165 119.27702 38860 ft 501 kts 55°
2026-04-22 19:35 23.03795 119.34164 38859 ft 501 kts 55°
2026-04-22 19:35 23.07421 119.40627 38859 ft 501 kts 55°
2026-04-22 19:36 23.11048 119.47099 38860 ft 502 kts 55°
2026-04-22 19:36 23.14675 119.53579 38859 ft 502 kts 55°
2026-04-22 19:37 23.19012 119.59412 38860 ft 491 kts 36°
2026-04-22 19:37 23.24639 119.63476 38859 ft 485 kts 25°
2026-04-22 19:38 23.30466 119.67117 38860 ft 486 kts 25°
2026-04-22 19:38 23.36374 119.70823 38860 ft 487 kts 25°
2026-04-22 19:39 23.42204 119.74494 38860 ft 488 kts 25°
2026-04-22 19:39 23.48076 119.78216 38860 ft 489 kts 26°
2026-04-22 19:40 23.53862 119.82161 38860 ft 491 kts 27°
2026-04-22 19:40 23.59635 119.86148 38860 ft 491 kts 27°
2026-04-22 19:41 23.65417 119.90137 38860 ft 492 kts 27°
2026-04-22 19:41 23.71206 119.94132 38860 ft 492 kts 27°
2026-04-22 19:42 23.76984 119.98122 38860 ft 492 kts 27°
2026-04-22 19:42 23.82780 120.02129 38859 ft 493 kts 27°
2026-04-22 19:43 23.91434 120.08120 38860 ft 493 kts 27°
2026-04-22 19:43 23.97228 120.12136 38859 ft 494 kts 27°
2026-04-22 19:44 24.03029 120.16161 38860 ft 493 kts 27°
2026-04-22 19:44 24.08821 120.20184 38860 ft 493 kts 27°
2026-04-22 19:45 24.14616 120.24212 38850 ft 493 kts 27°
2026-04-22 19:45 24.17512 120.26228 38505 ft 492 kts 27°
2026-04-22 19:45 24.20402 120.28241 38004 ft 490 kts 27°
2026-04-22 19:46 24.23270 120.30240 37562 ft 487 kts 27°
2026-04-22 19:46 24.26126 120.32233 37114 ft 486 kts 27°
2026-04-22 19:46 24.28972 120.34217 36660 ft 483 kts 27°
2026-04-22 19:46 24.31801 120.36191 36212 ft 481 kts 27°
2026-04-22 19:47 24.34629 120.38167 35758 ft 479 kts 28°
2026-04-22 19:47 24.37435 120.40127 35311 ft 478 kts 28°
2026-04-22 19:47 24.39285 120.41421 35009 ft 476 kts 28°
2026-04-22 19:47 24.42986 120.44008 34265 ft 477 kts 28°
2026-04-22 19:48 24.45788 120.45968 33580 ft 480 kts 28°
2026-04-22 19:48 24.48631 120.47955 32555 ft 490 kts 28°
2026-04-22 19:48 24.51535 120.49985 31508 ft 499 kts 28°
2026-04-22 19:48 24.54488 120.52053 30485 ft 507 kts 28°
2026-04-22 19:49 24.57453 120.54133 29830 ft 505 kts 28°
2026-04-22 19:49 24.60407 120.56208 29120 ft 504 kts 28°
2026-04-22 19:49 24.63356 120.58281 28388 ft 503 kts 28°
2026-04-22 19:49 24.66305 120.60370 27647 ft 503 kts 30°
2026-04-22 19:50 24.69073 120.62742 26875 ft 506 kts 37°
2026-04-22 19:50 24.71721 120.65303 26073 ft 506 kts 38°
2026-04-22 19:50 24.74330 120.67883 25492 ft 501 kts 38°
2026-04-22 19:50 24.76928 120.70455 24785 ft 499 kts 38°
2026-04-22 19:51 24.79456 120.72954 24218 ft 493 kts 38°
2026-04-22 19:51 24.82005 120.75469 23532 ft 490 kts 38°
2026-04-22 19:51 24.84532 120.77962 22892 ft 486 kts 38°
2026-04-22 19:51 24.87037 120.80432 22307 ft 480 kts 38°
2026-04-22 19:52 24.89517 120.82880 21667 ft 476 kts 38°
2026-04-22 19:52 24.91940 120.85362 21049 ft 474 kts 42°
2026-04-22 19:52 24.94158 120.88038 20462 ft 470 kts 45°
2026-04-22 19:52 24.96302 120.90748 19766 ft 467 kts 46°
2026-04-22 19:53 24.98417 120.93438 19208 ft 461 kts 46°
2026-04-22 19:53 25.00508 120.96099 18511 ft 458 kts 46°
2026-04-22 19:53 25.01890 120.97855 18145 ft 455 kts 46°
2026-04-22 19:53 25.04615 121.01315 17253 ft 450 kts 46°
2026-04-22 19:54 25.06659 121.03911 16704 ft 444 kts 46°
2026-04-22 19:54 25.08676 121.06473 16030 ft 441 kts 46°
2026-04-22 19:54 25.10678 121.09015 15447 ft 436 kts 46°
2026-04-22 19:54 25.12663 121.11537 14809 ft 432 kts 46°
2026-04-22 19:55 25.14616 121.14021 14194 ft 427 kts 46°
2026-04-22 19:55 25.16558 121.16491 13564 ft 423 kts 47°
2026-04-22 19:55 25.18475 121.18930 12956 ft 418 kts 47°
2026-04-22 19:55 25.20374 121.21345 12301 ft 415 kts 47°
2026-04-22 19:56 25.22259 121.23744 11663 ft 411 kts 47°
2026-04-22 19:56 25.24123 121.26119 11027 ft 408 kts 47°
2026-04-22 19:56 25.25972 121.28474 10423 ft 403 kts 47°
2026-04-22 19:56 25.27784 121.30786 10126 ft 390 kts 47°
2026-04-22 19:57 25.29525 121.33007 9921 ft 375 kts 47°
2026-04-22 19:57 25.31204 121.35142 9747 ft 361 kts 47°
2026-04-22 19:57 25.32826 121.37211 9565 ft 349 kts 48°
2026-04-22 19:57 25.34387 121.39202 9406 ft 336 kts 48°
2026-04-22 19:58 25.35876 121.41104 9243 ft 327 kts 48°
2026-04-22 19:58 25.37317 121.43020 8886 ft 324 kts 54°
2026-04-22 19:58 25.38216 121.45274 8410 ft 322 kts 82°
2026-04-22 19:58 25.38063 121.47702 7907 ft 317 kts 112°
2026-04-22 19:59 25.36909 121.49730 7263 ft 312 kts 142°
2026-04-22 20:00 25.26504 121.46658 5066 ft 263 kts 190°
2026-04-22 20:00 25.25343 121.46380 4942 ft 253 kts 205°
2026-04-22 20:01 25.23564 121.44810 4415 ft 250 kts 229°
2026-04-22 20:01 25.22795 121.43823 4111 ft 251 kts 230°
2026-04-22 20:01 25.21310 121.41850 3624 ft 251 kts 230°
2026-04-22 20:01 25.20219 121.40399 3477 ft 240 kts 230°
2026-04-22 20:02 25.19527 121.39465 3418 ft 231 kts 230°
2026-04-22 20:02 25.18521 121.38143 3229 ft 217 kts 229°
2026-04-22 20:02 25.17566 121.36930 2935 ft 202 kts 229°
2026-04-22 20:02 25.16676 121.35797 2664 ft 188 kts 229°
2026-04-22 20:03 25.15851 121.34746 2412 ft 177 kts 229°
2026-04-22 20:03 25.15054 121.33733 2160 ft 173 kts 229°
2026-04-22 20:03 25.14262 121.32731 1937 ft 173 kts 229°
2026-04-22 20:03 25.13472 121.31726 1710 ft 173 kts 229°
2026-04-22 20:04 25.12703 121.30750 1473 ft 161 kts 229°
2026-04-22 20:04 25.12004 121.29862 1280 ft 145 kts 229°
2026-04-22 20:04 25.11369 121.29052 1080 ft 135 kts 230°
2026-04-22 20:04 25.10771 121.28283 850 ft 129 kts 229°
2026-04-22 20:05 25.10180 121.27541 716 ft 131 kts 228°
2026-04-22 20:05 25.09580 121.26782 528 ft 131 kts 228°
2026-04-22 20:05 25.08979 121.26028 369 ft 131 kts 229°
2026-04-22 20:05 25.08381 121.25266 199 ft 131 kts 229°
2026-04-22 20:06 25.07777 121.24504 107 ft 129 kts 229°
2026-04-22 20:06 25.07278 121.23867 95 ft 78 kts 229°
2026-04-22 20:06 25.06997 121.23514 98 ft 55 kts 230°
2026-04-22 20:06 25.06784 121.23238 99 ft 39 kts 230°
2026-04-22 20:07 25.06698 121.23008 99 ft 20 kts 258°
2026-04-22 20:07 25.06684 121.22929 102 ft 4 kts 259°
2026-04-22 20:07 25.06684 121.22927 100 ft 0 kts 259°
2026-04-22 20:07 25.06684 121.22924 100 ft 2 kts 259°
2026-04-22 20:08 25.06675 121.22876 101 ft 10 kts 259°
2026-04-22 20:08 25.06678 121.22813 103 ft 1 kts 321°
2026-04-22 20:08 25.06708 121.22832 104 ft 9 kts 37°
2026-04-22 20:08 25.06756 121.22888 105 ft 12 kts 49°
2026-04-22 20:09 25.06824 121.22975 103 ft 18 kts 49°
2026-04-22 20:09 25.06910 121.23085 105 ft 20 kts 49°
2026-04-22 20:09 25.07001 121.23200 104 ft 20 kts 49°
2026-04-22 20:09 25.07096 121.23318 106 ft 21 kts 49°
2026-04-22 20:10 25.07194 121.23443 106 ft 22 kts 49°
2026-04-22 20:10 25.07279 121.23552 104 ft 11 kts 49°
2026-04-22 20:10 25.07334 121.23615 106 ft 12 kts 34°
2026-04-22 20:10 25.07390 121.23609 107 ft 7 kts 322°
2026-04-22 20:11 25.07405 121.23596 103 ft 0 kts 321°
2026-04-22 20:11 25.07414 121.23588 104 ft 3 kts 321°
2026-04-22 20:11 25.07422 121.23581 104 ft 2 kts 320°
2026-04-22 20:11 25.07429 121.23574 104 ft 1 kts 320°
2026-04-22 20:12 25.07430 121.23574 103 ft 0 kts 320°
2026-04-22 20:14 25.07430 121.23573 150 ft 0 kts 320°
2026-04-22 20:14 25.07432 121.23572 104 ft 0 kts 326°